Regional Weather Roundup
Issued by NWS Midland/Odessa, TX

Skip options and go directly to product.
Home | Oldest Version | Next Version | Current Version | All | Text Only | Save Text | Print | Product List | Glossary On

Skip product version selection by date and time.   
226
ASUS44 KMAF 300702
RWRMAF
MIDLAND AREA WEATHER ROUNDUP
NATIONAL WEATHER SERVICE MIDLAND TX
200 AM CDT THU OCT 30 2014

...IN SOUTHWEST TEXAS AND SOUTHEAST NEW MEXICO...

CITY           SKY/WX    TMP DP  RH WIND       PRES   REMARKS
ALPINE         CLEAR     55  51  86 SW7       30.25F
ANDREWS        FAIR      57  52  84 S6        30.14S
ARTESIA        NOT AVBL
BIG SPRING     CLEAR     63  54  73 S10       30.14F
CARLSBAD       CLEAR     59  50  72 S9        30.12F
DRYDEN           N/A     65  59  81 N7        30.09F
FORT STOCKTON  CLEAR     62  57  83 S8        30.13F
GUAD PASS      NOT AVBL
HOBBS          CLEAR     55  54  94 SW6       30.16S
MARFA          CLEAR     48  46  93 NW3       30.24S
MIDLAND AIRPK  CLEAR     63  55  74 S6        30.14S
MIDLAND INTL   CLEAR     60  53  77 SE6       30.13S
ODESSA         CLEAR     61  53  75 S6        30.14S
PECOS          CLEAR     55  51  85 NW6       30.11S
PRESIDIO       FAIR      69  55  62 N7        30.11F
SEMINOLE       CLEAR     52  47  84 CALM      30.16S
SNYDER         CLEAR     57  51  79 S7        30.13F
WINK           CLEAR     56  48  74 CALM      30.11F
$$
...OTHER STATIONS IN TEXAS...

CITY           SKY/WX    TMP DP  RH WIND       PRES   REMARKS
ABILENE        CLEAR     60  47  61 S9        30.13S
AMARILLO       CLEAR     50  43  77 S14       30.13S
AUSTIN         PTCLDY    58  57  97 CALM      30.11S
BROWNSVILLE    CLEAR     71  69  93 CALM      30.04F
CORPUS CHRISTI PTCLDY    72  69  90 NE6       30.06S
DALLAS FTW     CLEAR     59  44  57 SE5       30.13S
DEL RIO        CLEAR     71  63  75 E8        30.07F
EL PASO        CLEAR     60  43  53 N5        30.16F
HOUSTON INT    PTCLDY    61  60  97 NE5       30.10F
LUBBOCK        CLEAR     54  44  69 S10       30.13F
SAN ANGELO     CLEAR     61  55  81 CALM      30.12S
SAN ANTONIO    PTCLDY    68  62  81 E5        30.11F
WACO           CLEAR     55  49  80 CALM      30.14R
WICHITA FALLS  NOT AVBL
$$
...OTHER LOCATIONS IN NEW MEXICO...

CITY           SKY/WX    TMP DP  RH WIND       PRES   REMARKS
ALAMAGORDO     NOT AVBL
ALBUQUERQUE    CLEAR     55  15  20 NW7       30.27R
CANNON AFB     CLEAR     49  44  81 W6        30.14F
CLOVIS         CLEAR     48  41  76 SW9       30.17S
HOLLOMAN AFB   CLEAR     50  32  50 NE6       30.17S
ROSWELL        CLEAR     49  45  86 CALM      30.13S
RUIDOSO        CLEAR     50  27  40 NW8       30.31S
SANTA FE       CLEAR     45   9  23 CALM      30.28R
TRUTH OR CONSE CLEAR     56  36  47 W10       30.21S
TUCUMCARI      CLEAR     50  43  77 SW9       30.09R
$$

USA.gov is the U.S. government's official web portal to all federal, state and local government web resources and services.